Tracking 19219 objects as of 20-Jul-2018
HD Live streaming from Space Station
objects crossing your sky now

FLOCK 3P 18

Track FLOCK 3P 18 now!
10-day predictions
FLOCK 3P 18 is classified as:


NORAD ID: 41957
Int'l Code: 2017-008K
Perigee: 492.8 km
Apogee: 503.1 km
Inclination: 97.4 °
Period: 94.4 minutes
Semi major axis: 6868 km
RCS: Unknown
Launch date: February 15, 2017
Source: United States (US)
Launch site: SRIHARIKOTA (SRI)
aabbcc
Your satellite tracking list
Your tracking list is empty




NASA's NSSDC Master Catalog

Two Line Element Set (TLE):
1 41957U 17008K   18200.47474278 +.00001965 +00000-0 +81695-4 0  9990
2 41957 097.4458 265.1500 0007514 228.5078 131.5515 15.24978788078873
Source of the keplerian elements: AFSPC